DW0359 Weather Reports


Display with metric or nautical units.
time (UTC)temp
F
wind
direction
speed
MPH
gust
MPH
rain 1hr
in
rain 24hr
in
rain mn
in
humidity
%
barometer
mb
20260510213040 66 0 2.0 5.0 0.00 0.01 0.00 41 1020.9
20260510211540 66 352 1.0 3.0 0.00 0.01 0.00 40 1021.3
20260510210036 66 350 1.0 8.0 0.00 0.01 0.00 39 1021.5
20260510204537 66 355 2.0 5.0 0.00 0.01 0.00 40 1021.8
20260510203042 66 336 1.0 6.0 0.00 0.01 0.00 38 1021.7
20260510201543 66 17 1.0 6.0 0.00 0.01 0.00 43 1021.9
20260510200038 66 17 2.0 4.0 0.00 0.01 0.00 43 1021.8
20260510194542 66 17 3.0 8.0 0.00 0.01 0.00 38 1021.7
20260510193036 67 350 2.0 6.0 0.00 0.01 0.00 38 1021.7
20260510191545 66 10 1.0 8.0 0.00 0.01 0.00 39 1021.6
20260510190044 66 39 2.0 7.0 0.00 0.01 0.00 41 1021.6
20260510184539 65 352 3.0 8.0 0.00 0.01 0.00 39 1021.6
20260510183043 65 10 2.0 6.0 0.00 0.01 0.00 43 1021.6
20260510181543 64 15 2.0 5.0 0.00 0.01 0.00 45 1021.5
20260510180044 64 28 4.0 10.0 0.00 0.01 0.00 40 1021.5
20260510174550 64 14 3.0 7.0 0.00 0.01 0.00 42 1021.7
20260510173046 64 342 2.0 6.0 0.00 0.01 0.00 43 1021.9
20260510171548 62 338 1.0 5.0 0.00 0.01 0.00 46 1021.9
20260510170035 61 343 1.0 5.0 0.00 0.01 0.00 50 1022.0
20260510164543 60 0 2.0 4.0 0.00 0.01 0.00 49 1021.8
20260510163042 60 33 1.0 7.0 0.00 0.01 0.00 52 1022.0
20260510161540 59 0 0.0 2.0 0.00 0.01 0.00 57 1021.7
20260510160046 58 0 0.0 0.0 0.00 0.01 0.00 59 1021.9
20260510154546 57 0 0.0 0.0 0.00 0.01 0.00 63 1022.1
20260510153043 57 0 0.0 4.0 0.00 0.01 0.00 61 1022.1
20260510151543 57 0 0.0 2.0 0.00 0.01 0.00 62 1021.8
20260510150045 57 0 0.0 3.0 0.00 0.01 0.00 60 1021.9
20260510144551 57 326 2.0 4.0 0.00 0.01 0.00 59 1022.0
20260510143044 56 344 0.0 3.0 0.00 0.01 0.00 65 1021.8
20260510141545 56 344 1.0 4.0 0.00 0.01 0.00 60 1021.6
20260510140052 56 344 1.0 5.0 0.00 0.01 0.00 62 1021.4
20260510134544 56 0 1.0 5.0 0.00 0.01 0.00 62 1020.9
20260510133036 55 360 1.0 5.0 0.00 0.01 0.00 62 1020.6
20260510131536 55 0 1.0 4.0 0.00 0.01 0.00 62 1020.4
20260510130045 54 45 1.0 6.0 0.00 0.01 0.00 64 1019.8
20260510124553 54 53 1.0 4.0 0.00 0.01 0.00 65 1020.1
20260510123042 53 25 2.0 4.0 0.00 0.01 0.00 64 1019.8
20260510121536 53 11 2.0 4.0 0.00 0.01 0.00 64 1019.7
20260510120043 54 19 1.0 5.0 0.00 0.01 0.00 65 1019.5
20260510114538 54 32 2.0 5.0 0.00 0.01 0.00 65 1019.2
20260510113042 54 0 1.0 4.0 0.00 0.01 0.00 65 1019.0
20260510111543 54 5 1.0 4.0 0.00 0.01 0.00 64 1018.7
20260510110047 55 0 0.0 3.0 0.00 0.01 0.00 67 1018.5
20260510104543 55 0 0.0 3.0 0.00 0.01 0.00 66 1018.0
20260510103051 56 0 1.0 5.0 0.00 0.01 0.00 67 1017.9
20260510101549 56 0 0.0 3.0 0.00 0.01 0.00 69 1017.5
20260510100041 56 328 1.0 4.0 0.00 0.01 0.00 68 1017.5
20260510094546 57 11 1.0 7.0 0.00 0.01 0.00 67 1016.9
20260510093043 57 22 1.0 5.0 0.00 0.01 0.00 67 1016.8
20260510091543 57 0 1.0 6.0 0.00 0.01 0.00 68 1016.6
20260510090048 57 0 1.0 7.0 0.00 0.01 0.00 70 1016.5
20260510084543 58 23 1.0 5.0 0.00 0.01 0.00 73 1016.1
20260510083037 58 11 2.0 5.0 0.00 0.01 0.00 74 1015.9
20260510081543 58 336 2.0 9.0 0.00 0.01 0.00 77 1015.7
20260510080036 58 9 3.0 5.0 0.00 0.01 0.00 85 1015.6
20260510074546 58 0 0.0 3.0 0.00 0.01 0.00 89 1015.4
20260510073041 58 0 0.0 0.0 0.00 0.01 0.00 91 1016.2
20260510071538 59 0 0.0 0.0 0.00 0.01 0.00 90 1016.1
20260510070040 59 0 0.0 0.0 0.00 0.01 0.00 90 1015.7
20260510064543 59 0 0.0 0.0 0.00 0.01 0.00 89 1015.1
20260510063044 59 0 0.0 0.0 0.00 0.01 0.00 89 1015.0
20260510061548 60 0 0.0 0.0 0.00 0.01 0.00 88 1015.1
20260510060043 60 0 0.0 0.0 0.00 0.01 0.00 86 1014.5
20260510054557 61 0 0.0 0.0 0.00 0.02 0.00 88 1014.8
20260510053045 61 0 0.0 0.0 0.00 0.02 0.00 86 1014.5
20260510051543 61 0 0.0 0.0 0.00 0.02 0.00 87 1014.3
20260510050048 61 0 0.0 0.0 0.00 0.02 0.00 89 1014.1
20260510044548 61 0 0.0 0.0 0.00 0.02 0.02 89 1014.3
20260510043043 61 0 0.0 0.0 0.00 0.02 0.02 89 1013.9
20260510041600 61 0 0.0 0.0 0.00 0.02 0.02 90 1013.5
20260510040042 61 0 0.0 0.0 0.00 0.02 0.02 91 1013.4
20260510034547 61 0 0.0 0.0 0.00 0.02 0.02 92 1013.4
20260510033040 61 0 0.0 0.0 0.00 0.02 0.02 91 1013.1
20260510031549 61 0 0.0 0.0 0.00 0.02 0.02 91 1012.8
20260510030045 61 0 0.0 0.0 0.00 0.02 0.02 91 1012.7
20260510024600 62 0 0.0 0.0 0.00 0.02 0.02 90 1012.5
20260510023044 62 0 0.0 0.0 0.00 0.02 0.02 88 1011.7
20260510021544 62 0 0.0 0.0 0.01 0.02 0.02 87 1011.5
20260510020042 62 0 0.0 2.0 0.01 0.02 0.02 86 1011.3
20260510014542 62 17 1.0 4.0 0.01 0.04 0.02 86 1010.8
20260510013048 62 355 1.0 4.0 0.01 0.04 0.02 86 1011.1
20260510011536 63 348 2.0 9.0 0.00 0.03 0.01 84 1011.0
20260510010043 66 342 7.0 19.0 0.00 0.03 0.01 77 1010.6
20260510004547 75 236 1.0 4.0 0.00 0.13 0.01 59 1008.9
20260510003045 75 0 0.0 3.0 0.00 0.13 0.01 57 1008.2
20260510001536 76 0 0.0 4.0 0.00 0.13 0.01 55 1008.3
20260510000043 77 0 1.0 11.0 0.00 0.13 0.01 53 1008.4
20260509234542 77 0 1.0 6.0 0.00 0.71 0.01 53 1008.2
20260509233041 78 198 1.0 8.0 0.00 0.71 0.01 52 1008.4
20260509231536 78 0 1.0 5.0 0.00 0.71 0.01 51 1008.5
20260509230044 78 280 1.0 8.0 0.00 0.71 0.01 48 1008.7
20260509224541 78 217 2.0 7.0 0.00 0.78 0.01 48 1008.6
20260509223049 79 244 2.0 7.0 0.00 0.78 0.01 51 1008.6
20260509221545 79 213 2.0 9.0 0.00 0.78 0.01 50 1008.6
20260509220045 79 315 2.0 12.0 0.00 0.78 0.01 50 1008.6
20260509214542 79 0 2.0 7.0 0.00 0.79 0.01 50 1008.6